WORLDVIEW-2 (WV-2)
Last updated on Sun Jun 21 2026 00:02:51 GMT+0000 (Coordinated Universal Time)
1 35946U 09055A 26171.43434226 .00000074 00000+0 39024-4 0 9993
2 35946 98.4736 244.8392 0003904 197.1110 162.9946 14.37900227876119
Next 0 passes for location: London (51.5072 / 0.1276)
No passes found over London.